Location: Central Falls
(41.8900°N, 71.3929°W)
Time: 14:32:45
(UTC+00:00)

Courier 1B Rocket - Pass Details

Date: 04 December 2023
Orbit: 920 x 1202 km, 28.2° (Epoch: 01 March)

Event Time Altitude Azimuth Distance (km) Brightness Sun altitude
Rises 18:42:59 0° 242° (WSW) 3,634 9.0 19.4°
Reaches altitude 10° 18:46:12 10° 229° (SW) 2,653 9.0 19.1°
Maximum altitude 18:51:02 23° 179° (S) 1,854 7.7 18.6°
Drops below altitude 10° 18:55:46 10° 129° (SE) 2,602 7.4 18.1°
Sets 18:58:53 0° 115° (ESE) 3,547 7.8 17.8°
